Regional Weather Roundup
Issued by NWS

Home | Current Version | Previous Version | Text Only | Print | Product List | Glossary Off
Versions: 1 2 3 4 5 6 7 8 9 10 11 12 13 14 15 16 17 18 19 20 21 22 23 24 25 26 27 28 29 30 31 32 33 34 35 36 37 38 39 40 41 42 43 44 45 46 47 48 49 50

000
ASUS43 KLOT 210304
RWRIL

ILLINOIS REGIONAL WEATHER ROUNDUP
NATIONAL WEATHER SERVICE CHICAGO/ROMEOVILLE IL
1000 PM CDT FRI OCT 20 2017

NOTE: "FAIR" INDICATES FEW OR NO CLOUDS BELOW 12,000 FEET WITH NO
SIGNIFICANT WEATHER AND/OR OBSTRUCTIONS TO VISIBILITY.

* THESE STATIONS ARE NOT UNDER NWS QUALITY CONTROL. THEY ALSO MAY NOT
  REPORT WEATHER SUCH AS PRECIPITATION OR FOG.

ILZ001-002-007-009-015-016-024-210400-
NORTHWEST ILLINOIS

CITY           SKY/WX    TMP DP  RH WIND       PRES   REMARKS
MOLINE         CLOUDY    68  47  46 S18G25    29.95F
STERLING*      CLOUDY    62  46  55 SE5         N/A
SAVANNA*       MOCLDY    63  46  54 S7        29.98S
$$

ILZ003-004-008-010-011-017-018-210400-
NORTH CENTRAL ILLINOIS

CITY           SKY/WX    TMP DP  RH WIND       PRES   REMARKS
ROCKFORD       CLOUDY    65  45  48 S14       30.02R
FREEPORT*      MOCLDY    63  45  52 S10       30.01S
ROCHELLE*      PTCLDY    60  47  61 S8        30.03S
DE KALB*       CLOUDY    62  47  59 S12       30.05R
$$

ILZ005-006-012>014-019>023-210400-
NORTHEAST ILLINOIS

CITY           SKY/WX    TMP DP  RH WIND       PRES   REMARKS
CHICAGO-OHARE  CLOUDY    65  48  54 S12       30.05R
CHICAGO-MIDWAY CLOUDY    69  48  47 S12       30.06R
AURORA         CLOUDY    64  47  53 S9        30.06R
LANSING*       CLOUDY    62  51  67 S9        30.08S
JOLIET*        MOCLDY    64  49  59 S3        30.07R
WAUKEGAN       CLOUDY    67  48  50 S14       30.03R
DUPAGE AIRPORT PTCLDY    64  48  56 S10       30.05R
KANKAKEE*      CLOUDY    64  48  57 S8        30.09S
WHEELING       CLOUDY    68  49  50 S13       30.06R
MORRIS*        PTCLDY    63  47  56 S9        30.05R
NORTHERLY ISL    N/A     68  47  46 S13         N/A
$$

LMZ740>746-210400-
SOUTHERN LAKE MICHIGAN

STATION/POSITION SKY/WX   TEMP    WIND        PRES    VSBY  WAVE
                          AIR SEA DIR/SP/G                  HT/PER
                          (F)     (DEG/KT/KT) (MB)    (MI)  (FT/S)
SOUTHERN BUOY              65 61  150/ 16/ 16 1017.2          2/ 3
WILMETTE HARBOR            65 60  170/ 12/ 14   N/A           2/ 3
HARRISON CRIB              68     180/ 18/ 19   N/A
BURNHAM HARBOR             68     180/ 10/ 13   N/A
CALUMET HARBOR             68     170/  8/ 12 1017.5R
BURNS HARBOR               67     180/ 12/ 18 1019.0R
MICHIGAN CITY              68     160/ 12/ 15   N/A
MICHIGAN CITY 6N           63 58  190/ 10/ 12   N/A           1/ 2
ST. JOSEPH                 63 59  200/  8/  8 1018.9R         1
$$

ILZ025>027-034>036-040-047-049-050-058-095>099-210400-
WEST-CENTRAL ILLINOIS

CITY           SKY/WX    TMP DP  RH WIND       PRES   REMARKS
QUINCY         PTCLDY    68  49  50 S13       29.99R
MACOMB*        CLOUDY    64  50  59 S12       30.03R
JACKSONVILLE*  MOCLDY    67  50  56 S14G22    30.04R
$$

ILZ028>032-037-038-041>044-048-051>054-059>061-210400-
CENTRAL ILLINOIS

CITY           SKY/WX    TMP DP  RH WIND       PRES   REMARKS
BLOOMINGTON    MOCLDY    60  49  66 S13       30.09R
DECATUR        MOCLDY    64  48  56 S12       30.09R
PEORIA         CLOUDY    66  48  52 S16       30.03S
LACON*         CLOUDY    66  48  51 S14G20    30.03S
LINCOLN*       CLOUDY    62  51  69 SE8       30.06F
SPRINGFIELD    CLOUDY    67  51  56 S13G23    30.04F
TAYLORVILLE    MOCLDY    63  51  64 SE9       30.07F
$$

ILZ033-039-045-046-055>057-062-063-210400-
EAST-CENTRAL ILLINOIS

CITY           SKY/WX    TMP DP  RH WIND       PRES   REMARKS
CHAMPAIGN      PTCLDY    63  48  58 S13       30.10S
DANVILLE*      PTCLDY    60  49  65 S8        30.10R
MATTOON        PTCLDY    61  51  70 S7        30.10R
PARIS*         MOCLDY    53  48  83 S9        30.14R
$$

ILZ079-100>102-210400-
SOUTHWEST ILLINOIS

CITY           SKY/WX    TMP DP  RH WIND       PRES   REMARKS
ALTON          MOCLDY    66  54  63 SE12      30.07R
BELLEVILLE     PTCLDY    63  50  62 S2        30.11
CAHOKIA*       PTCLDY    67  51  56 SE8       30.06S
SPARTA*        MOCLDY    61  52  71 SE6       30.09F
$$

ILZ064>066-069>071-074>076-080>082-084>086-088>090-092>094-210400-
SOUTH-CENTRAL ILLINOIS

CITY           SKY/WX    TMP DP  RH WIND       PRES   REMARKS
CARBONDALE     CLOUDY    60  53  77 CALM      30.10F
EFFINGHAM*     CLOUDY    61  49  65 SE3       30.13R
MARION         CLOUDY    64  51  63 SE5       30.12S
MT. VERNON     PTCLDY    63  49  60 S5        30.12R
CENTRALIA*     CLOUDY    65  52  62 SE9       30.10R
SALEM*         MOCLDY    66  48  53 S5        30.11S
METROPOLIS*    CLOUDY    56  51  84 CALM      30.13S
$$

ILZ067-068-072-073-078-083-087-091-210400-
SOUTHEAST ILLINOIS

CITY           SKY/WX    TMP DP  RH WIND       PRES   REMARKS
LAWRENCEVILLE  CLOUDY    59  50  72 CALM      30.14R
FLORA*         MOCLDY    60  50  70 S6        30.12S
FAIRFIELD*     MOCLDY    62  49  62 SE3       30.12S
HARRISBURG*    PTCLDY    56  49  78 CALM      30.13S
ROBINSON*      MOCLDY    57  49  74 S3        30.14R
CARMI*         PTCLDY    58  52  79 S5        30.13S
$$

ABBREVIATIONS USED IN REMARKS
   TC - TEMPERATURE IN CELSIUS
  WCI - WIND CHILL INDEX
   HX - HEAT INDEX
  VSB - VISIBILITY
$$





USA.gov is the U.S. government's official web portal to all federal, state and local government web resources and services.